Location: Colorado Springs
(38.8340°N, 104.8210°W)
Time: 11:00:05
(UTC-07:00)

OTV 5 (USA 277) - Pass Details

Date: 12 October 2017
Orbit: 404 x 417 km, 43.0° (Epoch: 07 September)

Event Time Altitude Azimuth Distance (km) Brightness Sun altitude
Rises 20:46:43 0° 278° (W) 2,353 ? -28.3°
Reaches altitude 10° 20:48:55 10° 286° (WNW) 1,490 ? -28.7°
Enters shadow 20:49:55 17° 295° (WNW) 1,123 ? -28.9°
